owner,sensor,date,latitude,longitude,vertical_datum,sea_water_temperature,qcFlag 
WAVCIS,ioos:station:WAVCIS:CSI09:1,2013-08-01T00:00:00Z,29.1015,-89.9782,0.0,-9999.0,2 
WAVCIS,ioos:station:WAVCIS:CSI09:1,2013-08-01T01:00:00Z,29.1015,-89.9782,0.0,-9999.0,2 
WAVCIS,ioos:station:WAVCIS:CSI09:1,2013-08-01T02:00:00Z,29.1015,-89.9782,0.0,-9999.0,2 
WAVCIS,ioos:station:WAVCIS:CSI09:1,2013-08-01T03:00:00Z,29.1015,-89.9782,0.0,-9999.0,2 
WAVCIS,ioos:station:WAVCIS:CSI09:1,2013-08-01T04:00:00Z,29.1015,-89.9782,0.0,-9999.0,2 
WAVCIS,ioos:station:WAVCIS:CSI09:1,2013-08-01T05:00:00Z,29.1015,-89.9782,0.0,-9999.0,2 
WAVCIS,ioos:station:WAVCIS:CSI09:1,2013-08-01T06:00:00Z,29.1015,-89.9782,0.0,-9999.0,2 
WAVCIS,ioos:station:WAVCIS:CSI09:1,2013-08-01T07:00:00Z,29.1015,-89.9782,0.0,-9999.0,2 
WAVCIS,ioos:station:WAVCIS:CSI09:1,2013-08-01T08:00:00Z,29.1015,-89.9782,0.0,-9999.0,2 
WAVCIS,ioos:station:WAVCIS:CSI09:1,2013-08-01T09:00:00Z,29.1015,-89.9782,0.0,-9999.0,2 
WAVCIS,ioos:station:WAVCIS:CSI09:1,2013-08-01T10:00:00Z,29.1015,-89.9782,0.0,-9999.0,2 
WAVCIS,ioos:station:WAVCIS:CSI09:1,2013-08-01T11:00:00Z,29.1015,-89.9782,0.0,-9999.0,2 
WAVCIS,ioos:station:WAVCIS:CSI09:1,2013-08-01T12:00:00Z,29.1015,-89.9782,0.0,-9999.0,2 
WAVCIS,ioos:station:WAVCIS:CSI09:1,2013-08-01T13:00:00Z,29.1015,-89.9782,0.0,-9999.0,2 
WAVCIS,ioos:station:WAVCIS:CSI09:1,2013-08-01T14:00:00Z,29.1015,-89.9782,0.0,-9999.0,2 
WAVCIS,ioos:station:WAVCIS:CSI09:1,2013-08-01T15:00:00Z,29.1015,-89.9782,0.0,-9999.0,2 
WAVCIS,ioos:station:WAVCIS:CSI09:1,2013-08-01T16:00:00Z,29.1015,-89.9782,0.0,-9999.0,2 
WAVCIS,ioos:station:WAVCIS:CSI09:1,2013-08-01T17:00:00Z,29.1015,-89.9782,0.0,-9999.0,2 
WAVCIS,ioos:station:WAVCIS:CSI09:1,2013-08-01T18:00:00Z,29.1015,-89.9782,0.0,-9999.0,2 
WAVCIS,ioos:station:WAVCIS:CSI09:1,2013-08-01T19:00:00Z,29.1015,-89.9782,0.0,-9999.0,2 
WAVCIS,ioos:station:WAVCIS:CSI09:1,2013-08-01T20:00:00Z,29.1015,-89.9782,0.0,-9999.0,2 
WAVCIS,ioos:station:WAVCIS:CSI09:1,2013-08-01T21:00:00Z,29.1015,-89.9782,0.0,-9999.0,2 
WAVCIS,ioos:station:WAVCIS:CSI09:1,2013-08-01T22:00:00Z,29.1015,-89.9782,0.0,-9999.0,2 
WAVCIS,ioos:station:WAVCIS:CSI09:1,2013-08-01T23:00:00Z,29.1015,-89.9782,0.0,-9999.0,2 
WAVCIS,ioos:station:WAVCIS:CSI09:1,2013-08-02T00:00:00Z,29.1015,-89.9782,0.0,-9999.0,2 
WAVCIS,ioos:station:WAVCIS:CSI09:1,2013-08-02T01:00:00Z,29.1015,-89.9782,0.0,-9999.0,2 
WAVCIS,ioos:station:WAVCIS:CSI09:1,2013-08-02T02:00:00Z,29.1015,-89.9782,0.0,-9999.0,2 
WAVCIS,ioos:station:WAVCIS:CSI09:1,2013-08-02T03:00:00Z,29.1015,-89.9782,0.0,-9999.0,2 
WAVCIS,ioos:station:WAVCIS:CSI09:1,2013-08-02T04:00:00Z,29.1015,-89.9782,0.0,-9999.0,2 
WAVCIS,ioos:station:WAVCIS:CSI09:1,2013-08-02T05:00:00Z,29.1015,-89.9782,0.0,-9999.0,2 
WAVCIS,ioos:station:WAVCIS:CSI09:1,2013-08-02T06:00:00Z,29.1015,-89.9782,0.0,-9999.0,2 
WAVCIS,ioos:station:WAVCIS:CSI09:1,2013-08-02T07:00:00Z,29.1015,-89.9782,0.0,-9999.0,2 
WAVCIS,ioos:station:WAVCIS:CSI09:1,2013-08-02T08:00:00Z,29.1015,-89.9782,0.0,-9999.0,2 
WAVCIS,ioos:station:WAVCIS:CSI09:1,2013-08-02T09:00:00Z,29.1015,-89.9782,0.0,-9999.0,2 
WAVCIS,ioos:station:WAVCIS:CSI09:1,2013-08-02T10:00:00Z,29.1015,-89.9782,0.0,-9999.0,2 
WAVCIS,ioos:station:WAVCIS:CSI09:1,2013-08-02T11:00:00Z,29.1015,-89.9782,0.0,-9999.0,2 
WAVCIS,ioos:station:WAVCIS:CSI09:1,2013-08-02T12:00:00Z,29.1015,-89.9782,0.0,-9999.0,2 
WAVCIS,ioos:station:WAVCIS:CSI09:1,2013-08-02T13:00:00Z,29.1015,-89.9782,0.0,-9999.0,2 
WAVCIS,ioos:station:WAVCIS:CSI09:1,2013-08-02T14:00:00Z,29.1015,-89.9782,0.0,-9999.0,2 
WAVCIS,ioos:station:WAVCIS:CSI09:1,2013-08-02T15:00:00Z,29.1015,-89.9782,0.0,-9999.0,2 
WAVCIS,ioos:station:WAVCIS:CSI09:1,2013-08-02T16:00:00Z,29.1015,-89.9782,0.0,-9999.0,2 
WAVCIS,ioos:station:WAVCIS:CSI09:1,2013-08-02T17:00:00Z,29.1015,-89.9782,0.0,-9999.0,2 
WAVCIS,ioos:station:WAVCIS:CSI09:1,2013-08-02T18:00:00Z,29.1015,-89.9782,0.0,-9999.0,2 
WAVCIS,ioos:station:WAVCIS:CSI09:1,2013-08-02T19:00:00Z,29.1015,-89.9782,0.0,-9999.0,2 
WAVCIS,ioos:station:WAVCIS:CSI09:1,2013-08-02T20:00:00Z,29.1015,-89.9782,0.0,-9999.0,2 
WAVCIS,ioos:station:WAVCIS:CSI09:1,2013-08-02T21:00:00Z,29.1015,-89.9782,0.0,-9999.0,2 
WAVCIS,ioos:station:WAVCIS:CSI09:1,2013-08-02T22:00:00Z,29.1015,-89.9782,0.0,-9999.0,2 
WAVCIS,ioos:station:WAVCIS:CSI09:1,2013-08-02T23:00:00Z,29.1015,-89.9782,0.0,-9999.0,2 
WAVCIS,ioos:station:WAVCIS:CSI09:1,2013-08-03T00:00:00Z,29.1015,-89.9782,0.0,-9999.0,2 
WAVCIS,ioos:station:WAVCIS:CSI09:1,2013-08-03T01:00:00Z,29.1015,-89.9782,0.0,-9999.0,2 
WAVCIS,ioos:station:WAVCIS:CSI09:1,2013-08-03T02:00:00Z,29.1015,-89.9782,0.0,-9999.0,2 
WAVCIS,ioos:station:WAVCIS:CSI09:1,2013-08-03T03:00:00Z,29.1015,-89.9782,0.0,-9999.0,2 
WAVCIS,ioos:station:WAVCIS:CSI09:1,2013-08-03T04:00:00Z,29.1015,-89.9782,0.0,-9999.0,2 
WAVCIS,ioos:station:WAVCIS:CSI09:1,2013-08-03T05:00:00Z,29.1015,-89.9782,0.0,-9999.0,2 
WAVCIS,ioos:station:WAVCIS:CSI09:1,2013-08-03T06:00:00Z,29.1015,-89.9782,0.0,-9999.0,2 
WAVCIS,ioos:station:WAVCIS:CSI09:1,2013-08-03T07:00:00Z,29.1015,-89.9782,0.0,-9999.0,2 
WAVCIS,ioos:station:WAVCIS:CSI09:1,2013-08-03T08:00:00Z,29.1015,-89.9782,0.0,-9999.0,2 
WAVCIS,ioos:station:WAVCIS:CSI09:1,2013-08-03T09:00:00Z,29.1015,-89.9782,0.0,-9999.0,2 
WAVCIS,ioos:station:WAVCIS:CSI09:1,2013-08-03T10:00:00Z,29.1015,-89.9782,0.0,-9999.0,2 
WAVCIS,ioos:station:WAVCIS:CSI09:1,2013-08-03T11:00:00Z,29.1015,-89.9782,0.0,-9999.0,2 
WAVCIS,ioos:station:WAVCIS:CSI09:1,2013-08-03T12:00:00Z,29.1015,-89.9782,0.0,-9999.0,2 
WAVCIS,ioos:station:WAVCIS:CSI09:1,2013-08-03T13:00:00Z,29.1015,-89.9782,0.0,-9999.0,2 
WAVCIS,ioos:station:WAVCIS:CSI09:1,2013-08-03T14:00:00Z,29.1015,-89.9782,0.0,-9999.0,2 
WAVCIS,ioos:station:WAVCIS:CSI09:1,2013-08-03T15:00:00Z,29.1015,-89.9782,0.0,-9999.0,2 
WAVCIS,ioos:station:WAVCIS:CSI09:1,2013-08-03T16:00:00Z,29.1015,-89.9782,0.0,-9999.0,2 
WAVCIS,ioos:station:WAVCIS:CSI09:1,2013-08-03T17:00:00Z,29.1015,-89.9782,0.0,-9999.0,2 
WAVCIS,ioos:station:WAVCIS:CSI09:1,2013-08-03T18:00:00Z,29.1015,-89.9782,0.0,-9999.0,2 
WAVCIS,ioos:station:WAVCIS:CSI09:1,2013-08-03T19:00:00Z,29.1015,-89.9782,0.0,-9999.0,2 
WAVCIS,ioos:station:WAVCIS:CSI09:1,2013-08-03T20:00:00Z,29.1015,-89.9782,0.0,-9999.0,2 
WAVCIS,ioos:station:WAVCIS:CSI09:1,2013-08-03T21:00:00Z,29.1015,-89.9782,0.0,-9999.0,2 
WAVCIS,ioos:station:WAVCIS:CSI09:1,2013-08-03T22:00:00Z,29.1015,-89.9782,0.0,-9999.0,2 
WAVCIS,ioos:station:WAVCIS:CSI09:1,2013-08-03T23:00:00Z,29.1015,-89.9782,0.0,-9999.0,2 
WAVCIS,ioos:station:WAVCIS:CSI09:1,2013-08-04T00:00:00Z,29.1015,-89.9782,0.0,-9999.0,2 
WAVCIS,ioos:station:WAVCIS:CSI09:1,2013-08-04T01:00:00Z,29.1015,-89.9782,0.0,-9999.0,2 
WAVCIS,ioos:station:WAVCIS:CSI09:1,2013-08-04T02:00:00Z,29.1015,-89.9782,0.0,-9999.0,2 
WAVCIS,ioos:station:WAVCIS:CSI09:1,2013-08-04T03:00:00Z,29.1015,-89.9782,0.0,-9999.0,2 
WAVCIS,ioos:station:WAVCIS:CSI09:1,2013-08-04T04:00:00Z,29.1015,-89.9782,0.0,-9999.0,2 
WAVCIS,ioos:station:WAVCIS:CSI09:1,2013-08-04T05:00:00Z,29.1015,-89.9782,0.0,-8.51,11144222 
WAVCIS,ioos:station:WAVCIS:CSI09:1,2013-08-04T06:00:00Z,29.1015,-89.9782,0.0,-9.86,11144222 
WAVCIS,ioos:station:WAVCIS:CSI09:1,2013-08-04T07:00:00Z,29.1015,-89.9782,0.0,-9.68,11144222 
WAVCIS,ioos:station:WAVCIS:CSI09:1,2013-08-04T08:00:00Z,29.1015,-89.9782,0.0,-8.67,11144222 
WAVCIS,ioos:station:WAVCIS:CSI09:1,2013-08-04T09:00:00Z,29.1015,-89.9782,0.0,-9.17,11144222 
WAVCIS,ioos:station:WAVCIS:CSI09:1,2013-08-04T10:00:00Z,29.1015,-89.9782,0.0,-8.62,11144222 
WAVCIS,ioos:station:WAVCIS:CSI09:1,2013-08-04T11:00:00Z,29.1015,-89.9782,0.0,-11.12,11144222 
WAVCIS,ioos:station:WAVCIS:CSI09:1,2013-08-04T12:00:00Z,29.1015,-89.9782,0.0,-12.62,11144222 
WAVCIS,ioos:station:WAVCIS:CSI09:1,2013-08-04T13:00:00Z,29.1015,-89.9782,0.0,-13.13,11144222 
WAVCIS,ioos:station:WAVCIS:CSI09:1,2013-08-04T14:00:00Z,29.1015,-89.9782,0.0,-11.43,11144222 
WAVCIS,ioos:station:WAVCIS:CSI09:1,2013-08-04T15:00:00Z,29.1015,-89.9782,0.0,-11.4,11144222 
WAVCIS,ioos:station:WAVCIS:CSI09:1,2013-08-04T16:00:00Z,29.1015,-89.9782,0.0,-9.79,11144222 
WAVCIS,ioos:station:WAVCIS:CSI09:1,2013-08-04T17:00:00Z,29.1015,-89.9782,0.0,-16.17,11144222 
WAVCIS,ioos:station:WAVCIS:CSI09:1,2013-08-04T18:00:00Z,29.1015,-89.9782,0.0,-11.61,11144222 
WAVCIS,ioos:station:WAVCIS:CSI09:1,2013-08-04T19:00:00Z,29.1015,-89.9782,0.0,-11.87,11144222 
WAVCIS,ioos:station:WAVCIS:CSI09:1,2013-08-04T20:00:00Z,29.1015,-89.9782,0.0,-10.01,11144222 
WAVCIS,ioos:station:WAVCIS:CSI09:1,2013-08-04T21:00:00Z,29.1015,-89.9782,0.0,-10.74,11144222 
WAVCIS,ioos:station:WAVCIS:CSI09:1,2013-08-04T22:00:00Z,29.1015,-89.9782,0.0,-10.7,11144222 
WAVCIS,ioos:station:WAVCIS:CSI09:1,2013-08-04T23:00:00Z,29.1015,-89.9782,0.0,-11.37,11144222 
WAVCIS,ioos:station:WAVCIS:CSI09:1,2013-08-05T00:00:00Z,29.1015,-89.9782,0.0,-10.55,11144222 
WAVCIS,ioos:station:WAVCIS:CSI09:1,2013-08-05T01:00:00Z,29.1015,-89.9782,0.0,-10.57,11144222 
WAVCIS,ioos:station:WAVCIS:CSI09:1,2013-08-05T02:00:00Z,29.1015,-89.9782,0.0,-10.21,11144222 
WAVCIS,ioos:station:WAVCIS:CSI09:1,2013-08-05T03:00:00Z,29.1015,-89.9782,0.0,-10.25,11144222 
WAVCIS,ioos:station:WAVCIS:CSI09:1,2013-08-05T04:00:00Z,29.1015,-89.9782,0.0,-9.93,11144222 
WAVCIS,ioos:station:WAVCIS:CSI09:1,2013-08-05T05:00:00Z,29.1015,-89.9782,0.0,-9.88,11144222 
WAVCIS,ioos:station:WAVCIS:CSI09:1,2013-08-05T06:00:00Z,29.1015,-89.9782,0.0,-10.25,11144222 
WAVCIS,ioos:station:WAVCIS:CSI09:1,2013-08-05T07:00:00Z,29.1015,-89.9782,0.0,-10.81,11144222 
WAVCIS,ioos:station:WAVCIS:CSI09:1,2013-08-05T08:00:00Z,29.1015,-89.9782,0.0,-10.35,11144222 
WAVCIS,ioos:station:WAVCIS:CSI09:1,2013-08-05T09:00:00Z,29.1015,-89.9782,0.0,-10.5,11144222 
WAVCIS,ioos:station:WAVCIS:CSI09:1,2013-08-05T10:00:00Z,29.1015,-89.9782,0.0,-9.76,11144222 
WAVCIS,ioos:station:WAVCIS:CSI09:1,2013-08-05T11:00:00Z,29.1015,-89.9782,0.0,-11.02,11144222 
WAVCIS,ioos:station:WAVCIS:CSI09:1,2013-08-05T12:00:00Z,29.1015,-89.9782,0.0,-10.69,11144222 
WAVCIS,ioos:station:WAVCIS:CSI09:1,2013-08-05T13:00:00Z,29.1015,-89.9782,0.0,-10.77,11144222 
WAVCIS,ioos:station:WAVCIS:CSI09:1,2013-08-05T14:00:00Z,29.1015,-89.9782,0.0,-11.31,11144222 
WAVCIS,ioos:station:WAVCIS:CSI09:1,2013-08-05T15:00:00Z,29.1015,-89.9782,0.0,-9.29,11144222 
WAVCIS,ioos:station:WAVCIS:CSI09:1,2013-08-05T16:00:00Z,29.1015,-89.9782,0.0,-10.53,11144222 
WAVCIS,ioos:station:WAVCIS:CSI09:1,2013-08-05T17:00:00Z,29.1015,-89.9782,0.0,-10.3,11144222 
WAVCIS,ioos:station:WAVCIS:CSI09:1,2013-08-05T18:00:00Z,29.1015,-89.9782,0.0,-10.33,11144222 
WAVCIS,ioos:station:WAVCIS:CSI09:1,2013-08-05T19:00:00Z,29.1015,-89.9782,0.0,-10.31,11144222 
WAVCIS,ioos:station:WAVCIS:CSI09:1,2013-08-05T20:00:00Z,29.1015,-89.9782,0.0,-10.13,11144222 
WAVCIS,ioos:station:WAVCIS:CSI09:1,2013-08-05T21:00:00Z,29.1015,-89.9782,0.0,-9.31,11144222 
WAVCIS,ioos:station:WAVCIS:CSI09:1,2013-08-05T22:00:00Z,29.1015,-89.9782,0.0,-8.78,11144222 
WAVCIS,ioos:station:WAVCIS:CSI09:1,2013-08-05T23:00:00Z,29.1015,-89.9782,0.0,-9.17,11144222 
WAVCIS,ioos:station:WAVCIS:CSI09:1,2013-08-06T00:00:00Z,29.1015,-89.9782,0.0,-9.19,11144222 
WAVCIS,ioos:station:WAVCIS:CSI09:1,2013-08-06T01:00:00Z,29.1015,-89.9782,0.0,-9.05,11144222 
WAVCIS,ioos:station:WAVCIS:CSI09:1,2013-08-06T02:00:00Z,29.1015,-89.9782,0.0,-9.1,11144222 
WAVCIS,ioos:station:WAVCIS:CSI09:1,2013-08-06T03:00:00Z,29.1015,-89.9782,0.0,-9.34,11144222 
WAVCIS,ioos:station:WAVCIS:CSI09:1,2013-08-06T04:00:00Z,29.1015,-89.9782,0.0,-9999.0,2 
WAVCIS,ioos:station:WAVCIS:CSI09:1,2013-08-06T05:00:00Z,29.1015,-89.9782,0.0,-8.03,11144222 
WAVCIS,ioos:station:WAVCIS:CSI09:1,2013-08-06T06:00:00Z,29.1015,-89.9782,0.0,-9.81,11144222 
WAVCIS,ioos:station:WAVCIS:CSI09:1,2013-08-06T07:00:00Z,29.1015,-89.9782,0.0,-7.84,11144222 
WAVCIS,ioos:station:WAVCIS:CSI09:1,2013-08-06T08:00:00Z,29.1015,-89.9782,0.0,-7.16,11144222 
WAVCIS,ioos:station:WAVCIS:CSI09:1,2013-08-06T09:00:00Z,29.1015,-89.9782,0.0,-10.09,11144222 
WAVCIS,ioos:station:WAVCIS:CSI09:1,2013-08-06T10:00:00Z,29.1015,-89.9782,0.0,-10.12,11144222 
WAVCIS,ioos:station:WAVCIS:CSI09:1,2013-08-06T11:00:00Z,29.1015,-89.9782,0.0,-10.25,11144222 
WAVCIS,ioos:station:WAVCIS:CSI09:1,2013-08-06T12:00:00Z,29.1015,-89.9782,0.0,-10.13,11144222 
WAVCIS,ioos:station:WAVCIS:CSI09:1,2013-08-06T13:00:00Z,29.1015,-89.9782,0.0,-9.9,11144222 
WAVCIS,ioos:station:WAVCIS:CSI09:1,2013-08-06T14:00:00Z,29.1015,-89.9782,0.0,-9.96,11144222 
WAVCIS,ioos:station:WAVCIS:CSI09:1,2013-08-06T15:00:00Z,29.1015,-89.9782,0.0,-10.21,11144222 
WAVCIS,ioos:station:WAVCIS:CSI09:1,2013-08-06T16:00:00Z,29.1015,-89.9782,0.0,-10.99,11144222 
WAVCIS,ioos:station:WAVCIS:CSI09:1,2013-08-06T17:00:00Z,29.1015,-89.9782,0.0,-10.55,11144222 
WAVCIS,ioos:station:WAVCIS:CSI09:1,2013-08-06T18:00:00Z,29.1015,-89.9782,0.0,-8.65,11144222 
WAVCIS,ioos:station:WAVCIS:CSI09:1,2013-08-06T19:00:00Z,29.1015,-89.9782,0.0,-11.03,11144222 
WAVCIS,ioos:station:WAVCIS:CSI09:1,2013-08-06T20:00:00Z,29.1015,-89.9782,0.0,-10.01,11144222 
WAVCIS,ioos:station:WAVCIS:CSI09:1,2013-08-06T21:00:00Z,29.1015,-89.9782,0.0,-9.39,11144222 
WAVCIS,ioos:station:WAVCIS:CSI09:1,2013-08-06T22:00:00Z,29.1015,-89.9782,0.0,-9.48,11144222 
WAVCIS,ioos:station:WAVCIS:CSI09:1,2013-08-06T23:00:00Z,29.1015,-89.9782,0.0,-9.56,11144222 
WAVCIS,ioos:station:WAVCIS:CSI09:1,2013-08-07T00:00:00Z,29.1015,-89.9782,0.0,-9.68,11144222 
WAVCIS,ioos:station:WAVCIS:CSI09:1,2013-08-07T01:00:00Z,29.1015,-89.9782,0.0,-10.76,11144222 
WAVCIS,ioos:station:WAVCIS:CSI09:1,2013-08-07T02:00:00Z,29.1015,-89.9782,0.0,-10.41,11144222 
WAVCIS,ioos:station:WAVCIS:CSI09:1,2013-08-07T03:00:00Z,29.1015,-89.9782,0.0,-10.3,11144222 
WAVCIS,ioos:station:WAVCIS:CSI09:1,2013-08-07T04:00:00Z,29.1015,-89.9782,0.0,-9.89,11144222 
WAVCIS,ioos:station:WAVCIS:CSI09:1,2013-08-07T05:00:00Z,29.1015,-89.9782,0.0,-10.24,11144222 
WAVCIS,ioos:station:WAVCIS:CSI09:1,2013-08-07T06:00:00Z,29.1015,-89.9782,0.0,-10.58,11144222 
WAVCIS,ioos:station:WAVCIS:CSI09:1,2013-08-07T07:00:00Z,29.1015,-89.9782,0.0,-10.55,11144222 
WAVCIS,ioos:station:WAVCIS:CSI09:1,2013-08-07T08:00:00Z,29.1015,-89.9782,0.0,-10.26,11144222 
WAVCIS,ioos:station:WAVCIS:CSI09:1,2013-08-07T09:00:00Z,29.1015,-89.9782,0.0,-10.32,11144222 
WAVCIS,ioos:station:WAVCIS:CSI09:1,2013-08-07T10:00:00Z,29.1015,-89.9782,0.0,-11.07,11144222 
WAVCIS,ioos:station:WAVCIS:CSI09:1,2013-08-07T11:00:00Z,29.1015,-89.9782,0.0,-11.14,11144222 
WAVCIS,ioos:station:WAVCIS:CSI09:1,2013-08-07T12:00:00Z,29.1015,-89.9782,0.0,-10.34,11144222 
WAVCIS,ioos:station:WAVCIS:CSI09:1,2013-08-07T13:00:00Z,29.1015,-89.9782,0.0,-10.3,11144222 
WAVCIS,ioos:station:WAVCIS:CSI09:1,2013-08-07T14:00:00Z,29.1015,-89.9782,0.0,-9.27,11144222 
WAVCIS,ioos:station:WAVCIS:CSI09:1,2013-08-07T15:00:00Z,29.1015,-89.9782,0.0,-9.64,11144222 
WAVCIS,ioos:station:WAVCIS:CSI09:1,2013-08-07T16:00:00Z,29.1015,-89.9782,0.0,-9.86,11144222 
WAVCIS,ioos:station:WAVCIS:CSI09:1,2013-08-07T17:00:00Z,29.1015,-89.9782,0.0,-10.07,11144222 
WAVCIS,ioos:station:WAVCIS:CSI09:1,2013-08-07T18:00:00Z,29.1015,-89.9782,0.0,-9.93,11144222 
WAVCIS,ioos:station:WAVCIS:CSI09:1,2013-08-07T19:00:00Z,29.1015,-89.9782,0.0,-10.52,11144222 
WAVCIS,ioos:station:WAVCIS:CSI09:1,2013-08-07T20:00:00Z,29.1015,-89.9782,0.0,-10.55,11144222 
WAVCIS,ioos:station:WAVCIS:CSI09:1,2013-08-07T21:00:00Z,29.1015,-89.9782,0.0,-10.53,11144222 
WAVCIS,ioos:station:WAVCIS:CSI09:1,2013-08-07T22:00:00Z,29.1015,-89.9782,0.0,-10.59,11144222 
WAVCIS,ioos:station:WAVCIS:CSI09:1,2013-08-07T23:00:00Z,29.1015,-89.9782,0.0,-10.0,11144222 
WAVCIS,ioos:station:WAVCIS:CSI09:1,2013-08-08T00:00:00Z,29.1015,-89.9782,0.0,-9.91,11144222 
WAVCIS,ioos:station:WAVCIS:CSI09:1,2013-08-08T01:00:00Z,29.1015,-89.9782,0.0,-9.3,11144222 
WAVCIS,ioos:station:WAVCIS:CSI09:1,2013-08-08T02:00:00Z,29.1015,-89.9782,0.0,-9.37,11144222 
WAVCIS,ioos:station:WAVCIS:CSI09:1,2013-08-08T03:00:00Z,29.1015,-89.9782,0.0,-8.74,11144222 
WAVCIS,ioos:station:WAVCIS:CSI09:1,2013-08-08T04:00:00Z,29.1015,-89.9782,0.0,-9.82,11144222 
WAVCIS,ioos:station:WAVCIS:CSI09:1,2013-08-08T05:00:00Z,29.1015,-89.9782,0.0,-9.68,11144222 
WAVCIS,ioos:station:WAVCIS:CSI09:1,2013-08-08T06:00:00Z,29.1015,-89.9782,0.0,-8.86,11144222 
WAVCIS,ioos:station:WAVCIS:CSI09:1,2013-08-08T07:00:00Z,29.1015,-89.9782,0.0,-8.5,11144222 
WAVCIS,ioos:station:WAVCIS:CSI09:1,2013-08-08T08:00:00Z,29.1015,-89.9782,0.0,-8.69,11144222 
WAVCIS,ioos:station:WAVCIS:CSI09:1,2013-08-08T09:00:00Z,29.1015,-89.9782,0.0,-8.87,11144222 
WAVCIS,ioos:station:WAVCIS:CSI09:1,2013-08-08T10:00:00Z,29.1015,-89.9782,0.0,-8.81,11144222 
WAVCIS,ioos:station:WAVCIS:CSI09:1,2013-08-08T11:00:00Z,29.1015,-89.9782,0.0,-9.05,11144222 
WAVCIS,ioos:station:WAVCIS:CSI09:1,2013-08-08T12:00:00Z,29.1015,-89.9782,0.0,-9.11,11144222 
WAVCIS,ioos:station:WAVCIS:CSI09:1,2013-08-08T13:00:00Z,29.1015,-89.9782,0.0,-9.24,11144222 
WAVCIS,ioos:station:WAVCIS:CSI09:1,2013-08-08T14:00:00Z,29.1015,-89.9782,0.0,-9.65,11144222 
WAVCIS,ioos:station:WAVCIS:CSI09:1,2013-08-08T15:00:00Z,29.1015,-89.9782,0.0,-9.06,11144222 
WAVCIS,ioos:station:WAVCIS:CSI09:1,2013-08-08T16:00:00Z,29.1015,-89.9782,0.0,-9.6,11144222 
WAVCIS,ioos:station:WAVCIS:CSI09:1,2013-08-08T17:00:00Z,29.1015,-89.9782,0.0,-9.15,11144222 
WAVCIS,ioos:station:WAVCIS:CSI09:1,2013-08-08T18:00:00Z,29.1015,-89.9782,0.0,-8.8,11144222 
WAVCIS,ioos:station:WAVCIS:CSI09:1,2013-08-08T19:00:00Z,29.1015,-89.9782,0.0,-8.61,11144222 
WAVCIS,ioos:station:WAVCIS:CSI09:1,2013-08-08T20:00:00Z,29.1015,-89.9782,0.0,-9.15,11144222 
WAVCIS,ioos:station:WAVCIS:CSI09:1,2013-08-08T21:00:00Z,29.1015,-89.9782,0.0,-9.09,11144222 
WAVCIS,ioos:station:WAVCIS:CSI09:1,2013-08-08T22:00:00Z,29.1015,-89.9782,0.0,-8.92,11144222 
WAVCIS,ioos:station:WAVCIS:CSI09:1,2013-08-08T23:00:00Z,29.1015,-89.9782,0.0,-9.26,11144222 
WAVCIS,ioos:station:WAVCIS:CSI09:1,2013-08-09T00:00:00Z,29.1015,-89.9782,0.0,-9.12,11144222 
WAVCIS,ioos:station:WAVCIS:CSI09:1,2013-08-09T01:00:00Z,29.1015,-89.9782,0.0,-9.4,11144222 
WAVCIS,ioos:station:WAVCIS:CSI09:1,2013-08-09T02:00:00Z,29.1015,-89.9782,0.0,-9.53,11144222 
WAVCIS,ioos:station:WAVCIS:CSI09:1,2013-08-09T03:00:00Z,29.1015,-89.9782,0.0,-8.93,11144222 
WAVCIS,ioos:station:WAVCIS:CSI09:1,2013-08-09T04:00:00Z,29.1015,-89.9782,0.0,-8.52,11144222 
WAVCIS,ioos:station:WAVCIS:CSI09:1,2013-08-09T05:00:00Z,29.1015,-89.9782,0.0,-8.66,11144222 
WAVCIS,ioos:station:WAVCIS:CSI09:1,2013-08-09T06:00:00Z,29.1015,-89.9782,0.0,-8.74,11144222 
WAVCIS,ioos:station:WAVCIS:CSI09:1,2013-08-09T07:00:00Z,29.1015,-89.9782,0.0,-8.63,11144222 
WAVCIS,ioos:station:WAVCIS:CSI09:1,2013-08-09T08:00:00Z,29.1015,-89.9782,0.0,-8.55,11144222 
WAVCIS,ioos:station:WAVCIS:CSI09:1,2013-08-09T09:00:00Z,29.1015,-89.9782,0.0,-8.53,11144222 
WAVCIS,ioos:station:WAVCIS:CSI09:1,2013-08-09T10:00:00Z,29.1015,-89.9782,0.0,-8.64,11144222 
WAVCIS,ioos:station:WAVCIS:CSI09:1,2013-08-09T11:00:00Z,29.1015,-89.9782,0.0,-8.68,11144222 
WAVCIS,ioos:station:WAVCIS:CSI09:1,2013-08-09T12:00:00Z,29.1015,-89.9782,0.0,-8.74,11144222 
WAVCIS,ioos:station:WAVCIS:CSI09:1,2013-08-09T13:00:00Z,29.1015,-89.9782,0.0,-8.71,11144222 
WAVCIS,ioos:station:WAVCIS:CSI09:1,2013-08-09T14:00:00Z,29.1015,-89.9782,0.0,-8.58,11144222 
WAVCIS,ioos:station:WAVCIS:CSI09:1,2013-08-09T15:00:00Z,29.1015,-89.9782,0.0,-8.6,11144222 
WAVCIS,ioos:station:WAVCIS:CSI09:1,2013-08-09T16:00:00Z,29.1015,-89.9782,0.0,-8.57,11144222 
WAVCIS,ioos:station:WAVCIS:CSI09:1,2013-08-09T17:00:00Z,29.1015,-89.9782,0.0,-8.72,11144222 
WAVCIS,ioos:station:WAVCIS:CSI09:1,2013-08-09T18:00:00Z,29.1015,-89.9782,0.0,-8.8,11144222 
WAVCIS,ioos:station:WAVCIS:CSI09:1,2013-08-09T19:00:00Z,29.1015,-89.9782,0.0,-8.71,11144222 
WAVCIS,ioos:station:WAVCIS:CSI09:1,2013-08-09T20:00:00Z,29.1015,-89.9782,0.0,-8.74,11144222 
WAVCIS,ioos:station:WAVCIS:CSI09:1,2013-08-09T21:00:00Z,29.1015,-89.9782,0.0,-8.74,11144222 
WAVCIS,ioos:station:WAVCIS:CSI09:1,2013-08-09T22:00:00Z,29.1015,-89.9782,0.0,-8.8,11144222 
WAVCIS,ioos:station:WAVCIS:CSI09:1,2013-08-09T23:00:00Z,29.1015,-89.9782,0.0,-8.9,11144222 
WAVCIS,ioos:station:WAVCIS:CSI09:1,2013-08-10T00:00:00Z,29.1015,-89.9782,0.0,-8.96,11144222 
WAVCIS,ioos:station:WAVCIS:CSI09:1,2013-08-10T01:00:00Z,29.1015,-89.9782,0.0,-8.96,11144222 
WAVCIS,ioos:station:WAVCIS:CSI09:1,2013-08-10T02:00:00Z,29.1015,-89.9782,0.0,-9.0,11144222 
WAVCIS,ioos:station:WAVCIS:CSI09:1,2013-08-10T03:00:00Z,29.1015,-89.9782,0.0,-9.2,11144222 
WAVCIS,ioos:station:WAVCIS:CSI09:1,2013-08-10T04:00:00Z,29.1015,-89.9782,0.0,-9.3,11144222 
WAVCIS,ioos:station:WAVCIS:CSI09:1,2013-08-10T05:00:00Z,29.1015,-89.9782,0.0,-9.6,11144222 
WAVCIS,ioos:station:WAVCIS:CSI09:1,2013-08-10T06:00:00Z,29.1015,-89.9782,0.0,-9.71,11144222 
WAVCIS,ioos:station:WAVCIS:CSI09:1,2013-08-10T07:00:00Z,29.1015,-89.9782,0.0,-9.21,11144222 
WAVCIS,ioos:station:WAVCIS:CSI09:1,2013-08-10T08:00:00Z,29.1015,-89.9782,0.0,-9.09,11144222 
WAVCIS,ioos:station:WAVCIS:CSI09:1,2013-08-10T09:00:00Z,29.1015,-89.9782,0.0,-8.95,11144222 
WAVCIS,ioos:station:WAVCIS:CSI09:1,2013-08-10T10:00:00Z,29.1015,-89.9782,0.0,-9.03,11144222 
WAVCIS,ioos:station:WAVCIS:CSI09:1,2013-08-10T11:00:00Z,29.1015,-89.9782,0.0,-10.12,11144222 
WAVCIS,ioos:station:WAVCIS:CSI09:1,2013-08-10T12:00:00Z,29.1015,-89.9782,0.0,-9.83,11144222 
WAVCIS,ioos:station:WAVCIS:CSI09:1,2013-08-10T13:00:00Z,29.1015,-89.9782,0.0,-9.61,11144222 
WAVCIS,ioos:station:WAVCIS:CSI09:1,2013-08-10T14:00:00Z,29.1015,-89.9782,0.0,-8.77,11144222 
WAVCIS,ioos:station:WAVCIS:CSI09:1,2013-08-10T15:00:00Z,29.1015,-89.9782,0.0,-9.07,11144222 
WAVCIS,ioos:station:WAVCIS:CSI09:1,2013-08-10T16:00:00Z,29.1015,-89.9782,0.0,-9.41,11144222 
WAVCIS,ioos:station:WAVCIS:CSI09:1,2013-08-10T17:00:00Z,29.1015,-89.9782,0.0,-9.07,11144222 
WAVCIS,ioos:station:WAVCIS:CSI09:1,2013-08-10T18:00:00Z,29.1015,-89.9782,0.0,-9.53,11144222 
WAVCIS,ioos:station:WAVCIS:CSI09:1,2013-08-10T19:00:00Z,29.1015,-89.9782,0.0,-9.85,11144222 
WAVCIS,ioos:station:WAVCIS:CSI09:1,2013-08-10T20:00:00Z,29.1015,-89.9782,0.0,-9.4,11144222 
WAVCIS,ioos:station:WAVCIS:CSI09:1,2013-08-10T21:00:00Z,29.1015,-89.9782,0.0,-9.5,11144222 
WAVCIS,ioos:station:WAVCIS:CSI09:1,2013-08-10T22:00:00Z,29.1015,-89.9782,0.0,-9.21,11144222 
WAVCIS,ioos:station:WAVCIS:CSI09:1,2013-08-10T23:00:00Z,29.1015,-89.9782,0.0,-9.8,11144222 
WAVCIS,ioos:station:WAVCIS:CSI09:1,2013-08-11T00:00:00Z,29.1015,-89.9782,0.0,-9.77,11144222 
WAVCIS,ioos:station:WAVCIS:CSI09:1,2013-08-11T01:00:00Z,29.1015,-89.9782,0.0,-9.12,11144222 
WAVCIS,ioos:station:WAVCIS:CSI09:1,2013-08-11T02:00:00Z,29.1015,-89.9782,0.0,-9.67,11144222 
WAVCIS,ioos:station:WAVCIS:CSI09:1,2013-08-11T03:00:00Z,29.1015,-89.9782,0.0,-9.37,11144222 
WAVCIS,ioos:station:WAVCIS:CSI09:1,2013-08-11T04:00:00Z,29.1015,-89.9782,0.0,-9.55,11144222 
WAVCIS,ioos:station:WAVCIS:CSI09:1,2013-08-11T05:00:00Z,29.1015,-89.9782,0.0,-9.54,11144222 
WAVCIS,ioos:station:WAVCIS:CSI09:1,2013-08-11T06:00:00Z,29.1015,-89.9782,0.0,-9.47,11144222 
WAVCIS,ioos:station:WAVCIS:CSI09:1,2013-08-11T07:00:00Z,29.1015,-89.9782,0.0,-9.67,11144222 
WAVCIS,ioos:station:WAVCIS:CSI09:1,2013-08-11T08:00:00Z,29.1015,-89.9782,0.0,-9.18,11144222 
WAVCIS,ioos:station:WAVCIS:CSI09:1,2013-08-11T09:00:00Z,29.1015,-89.9782,0.0,-9.46,11144222 
WAVCIS,ioos:station:WAVCIS:CSI09:1,2013-08-11T10:00:00Z,29.1015,-89.9782,0.0,-9.3,11144222 
WAVCIS,ioos:station:WAVCIS:CSI09:1,2013-08-11T11:00:00Z,29.1015,-89.9782,0.0,-9.76,11144222 
WAVCIS,ioos:station:WAVCIS:CSI09:1,2013-08-11T12:00:00Z,29.1015,-89.9782,0.0,-9.58,11144222 
WAVCIS,ioos:station:WAVCIS:CSI09:1,2013-08-11T13:00:00Z,29.1015,-89.9782,0.0,-9.54,11144222 
WAVCIS,ioos:station:WAVCIS:CSI09:1,2013-08-11T14:00:00Z,29.1015,-89.9782,0.0,-9.86,11144222 
WAVCIS,ioos:station:WAVCIS:CSI09:1,2013-08-11T15:00:00Z,29.1015,-89.9782,0.0,-10.09,11144222 
WAVCIS,ioos:station:WAVCIS:CSI09:1,2013-08-11T16:00:00Z,29.1015,-89.9782,0.0,-10.18,11144222 
WAVCIS,ioos:station:WAVCIS:CSI09:1,2013-08-11T17:00:00Z,29.1015,-89.9782,0.0,-10.06,11144222 
WAVCIS,ioos:station:WAVCIS:CSI09:1,2013-08-11T18:00:00Z,29.1015,-89.9782,0.0,-9.85,11144222 
WAVCIS,ioos:station:WAVCIS:CSI09:1,2013-08-11T19:00:00Z,29.1015,-89.9782,0.0,-10.18,11144222 
WAVCIS,ioos:station:WAVCIS:CSI09:1,2013-08-11T20:00:00Z,29.1015,-89.9782,0.0,-9.83,11144222 